Tracking 28096 objects as of 29-Sep-2023
HD Live streaming from Space Station
objects crossing your sky now

STARLINK-30261

Track STARLINK-30261 now!
10-day predictions
STARLINK-30261 is classified as:


NORAD ID: 57523
Int'l Code: 2023-115C
Perigee: 564.9 km
Apogee: 567.3 km
Inclination: 43.0 °
Period: 95.8 minutes
Semi major axis: 6937 km
RCS: Unknown
Launch date: August 8, 2023
Source: United States (US)
Launch site: AIR FORCE WESTERN TEST RANGE (AFWTR)
Your satellite tracking list
Your tracking list is empty




NASA's NSSDC Master Catalog

Two Line Element Set (TLE):
1 57523U 23115C   23271.91668981 -.00050288  00000-0 -37295-2 0  9990
2 57523  43.0013 176.0239 0001747 248.6204 181.7243 15.02583718  9014
Source of the keplerian elements: AFSPC